| time (UTC) | temp F | wind direction | speed knots | gust knots | rain 1hr in | rain 24hr in | rain mn in | humidity % | barometer mb |
| 20260831194101 | 69 | 6 | 2.6 | 7.0 | 0.00 | 0.00 | 0.00 | 43 | 1029.4 |
| 20260831193020 | 69 | 39 | 4.3 | 7.0 | 0.00 | 0.00 | 0.00 | 44 | 1029.4 |
| 20260831192020 | 68 | 52 | 4.3 | 7.0 | 0.00 | 0.00 | 0.00 | 46 | 1029.6 |
| 20260831191021 | 67 | 91 | 1.7 | 2.6 | 0.00 | 0.00 | 0.00 | 46 | 1029.8 |
| 20260831190020 | 66 | 0 | 1.7 | 2.6 | 0.00 | 0.00 | 0.00 | 46 | 1029.8 |
| 20260831185021 | 66 | 347 | 1.7 | 4.3 | 0.00 | 0.00 | 0.00 | 49 | 1030.1 |
| 20260831184021 | 65 | 345 | 4.3 | 5.2 | 0.00 | 0.00 | 0.00 | 52 | 1030.1 |
| 20260831183021 | 65 | 317 | 2.6 | 4.3 | 0.00 | 0.00 | 0.00 | 56 | 1030.3 |
| 20260831182022 | 65 | 234 | 2.6 | 5.2 | 0.00 | 0.00 | 0.00 | 51 | 1030.4 |
| 20260831181022 | 63 | 248 | 5.2 | 7.0 | 0.00 | 0.00 | 0.00 | 54 | 1030.5 |
| 20260831180022 | 60 | 348 | 1.7 | 2.6 | 0.00 | 0.00 | 0.00 | 68 | 1030.9 |
| 20260831175022 | 61 | 332 | 2.6 | 3.5 | 0.00 | 0.00 | 0.00 | 71 | 1031.1 |
| 20260831174022 | 61 | 259 | 2.6 | 2.6 | 0.00 | 0.00 | 0.00 | 67 | 1030.9 |
| 20260831172106 | 64 | 275 | 2.6 | 4.3 | 0.00 | 0.00 | 0.00 | 61 | 1030.7 |
| 20260831171106 | 65 | 316 | 0.9 | 1.7 | 0.00 | 0.00 | 0.00 | 48 | 1030.3 |
| 20260831170106 | 65 | 224 | 4.3 | 5.2 | 0.00 | 0.00 | 0.00 | 49 | 1030.7 |
| 20260831165106 | 64 | 180 | 4.3 | 6.1 | 0.00 | 0.00 | 0.00 | 52 | 1030.6 |
| 20260831164127 | 64 | 170 | 4.3 | 6.1 | 0.00 | 0.00 | 0.00 | 52 | 1030.7 |
| 20260831163107 | 64 | 185 | 6.1 | 7.0 | 0.00 | 0.00 | 0.00 | 51 | 1030.7 |
| 20260831162107 | 63 | 185 | 1.7 | 1.7 | 0.00 | 0.00 | 0.00 | 58 | 1030.6 |
| 20260831161128 | 0 | 186 | 2.6 | 2.6 | 0.00 | 0.00 | 0.00 | 1030.5 | |
| 20260831071518 | 54 | 140 | 7.0 | 7.8 | 0.00 | 0.00 | 0.00 | 79 | 1029.8 |
| 20260831070516 | 53 | 124 | 2.6 | 3.5 | 0.00 | 0.00 | 0.00 | 81 | 1030.3 |
| 20260831065518 | 54 | 109 | 1.7 | 2.6 | 0.00 | 0.00 | 0.00 | 83 | 1030.5 |
| 20260831064519 | 54 | 67 | 3.5 | 4.3 | 0.00 | 0.00 | 0.00 | 83 | 1030.7 |
| 20260831063539 | 54 | 67 | 5.2 | 6.1 | 0.00 | 0.00 | 0.00 | 83 | 1030.9 |
| 20260831062519 | 54 | 51 | 5.2 | 6.1 | 0.00 | 0.00 | 0.00 | 82 | 1031.0 |
| 20260831061517 | 55 | 37 | 5.2 | 6.1 | 0.00 | 0.00 | 0.00 | 81 | 1031.0 |
| 20260831060538 | 55 | 21 | 5.2 | 7.0 | 0.00 | 0.00 | 0.00 | 78 | 1031.0 |
| 20260831055538 | 54 | 2 | 5.2 | 6.1 | 0.00 | 0.00 | 0.00 | 80 | 1031.2 |
| 20260831054518 | 54 | 1 | 2.6 | 3.5 | 0.00 | 0.00 | 0.00 | 81 | 1030.9 |
| 20260831053619 | 55 | 336 | 2.6 | 4.3 | 0.00 | 0.00 | 0.00 | 77 | 1030.4 |
| 20260831052518 | 54 | 288 | 3.5 | 4.3 | 0.00 | 0.00 | 0.00 | 80 | 1030.2 |
| 20260831051519 | 54 | 242 | 3.5 | 4.3 | 0.00 | 0.00 | 0.00 | 80 | 1030.0 |
| 20260831050519 | 55 | 205 | 2.6 | 2.6 | 0.00 | 0.00 | 0.00 | 78 | 1030.2 |
| 20260831045519 | 56 | 217 | 0.9 | 1.7 | 0.00 | 0.00 | 0.00 | 76 | 1030.0 |
| 20260831044519 | 58 | 56 | 4.3 | 6.1 | 0.00 | 0.00 | 0.00 | 68 | 1029.9 |
| 20260831043558 | 57 | 47 | 6.1 | 9.6 | 0.00 | 0.00 | 0.00 | 68 | 1029.9 |
| 20260831042520 | 55 | 32 | 5.2 | 7.8 | 0.00 | 0.00 | 0.00 | 76 | 1029.9 |
| 20260831041701 | 55 | 22 | 7.0 | 9.6 | 0.00 | 0.00 | 0.00 | 80 | 1029.9 |
| 20260831040519 | 55 | 3 | 9.6 | 15.6 | 0.00 | 0.00 | 0.00 | 79 | 1029.9 |
| 20260831035519 | 56 | 358 | 7.8 | 11.3 | 0.00 | 0.00 | 0.00 | 75 | 1029.7 |
| 20260831034520 | 56 | 333 | 5.2 | 7.8 | 0.00 | 0.00 | 0.00 | 73 | 1029.5 |
| 20260831033559 | 56 | 355 | 5.2 | 8.7 | 0.00 | 0.00 | 0.00 | 69 | 1029.4 |
| 20260831032521 | 56 | 331 | 3.5 | 6.1 | 0.00 | 0.00 | 0.00 | 71 | 1029.2 |
| 20260831031516 | 59 | 347 | 2.6 | 5.2 | 0.00 | 0.00 | 0.00 | 64 | 1029.0 |
| 20260831030521 | 59 | 22 | 3.5 | 6.1 | 0.00 | 0.00 | 0.00 | 62 | 1028.7 |
| 20260831025521 | 60 | 29 | 4.3 | 7.0 | 0.00 | 0.00 | 0.00 | 61 | 1028.5 |
| 20260831024541 | 60 | 31 | 5.2 | 7.8 | 0.00 | 0.00 | 0.00 | 61 | 1028.2 |
| 20260831023517 | 60 | 31 | 5.2 | 7.8 | 0.00 | 0.00 | 0.00 | 62 | 1028.2 |
| 20260831022518 | 61 | 26 | 5.2 | 7.8 | 0.00 | 0.00 | 0.00 | 61 | 1028.0 |
| 20260831021518 | 61 | 341 | 3.5 | 6.1 | 0.00 | 0.00 | 0.00 | 59 | 1027.9 |
| 20260831020518 | 60 | 8 | 4.3 | 7.0 | 0.00 | 0.00 | 0.00 | 59 | 1027.8 |
| 20260831015522 | 61 | 49 | 2.6 | 3.5 | 0.00 | 0.00 | 0.00 | 61 | 1027.6 |
| 20260831014522 | 62 | 52 | 0.9 | 2.6 | 0.00 | 0.00 | 0.00 | 58 | 1027.5 |
| 20260831013523 | 63 | 28 | 1.7 | 2.6 | 0.00 | 0.00 | 0.00 | 56 | 1027.4 |
| 20260831012523 | 65 | 358 | 1.7 | 3.5 | 0.00 | 0.00 | 0.00 | 52 | 1027.1 |
| 20260831011523 | 67 | 323 | 2.6 | 4.3 | 0.00 | 0.00 | 0.00 | 50 | 1027.0 |
| 20260831010524 | 68 | 9 | 1.7 | 2.6 | 0.00 | 0.00 | 0.00 | 51 | 1026.8 |
| 20260831005523 | 69 | 70 | 2.6 | 3.5 | 0.00 | 0.00 | 0.00 | 50 | 1026.8 |
| 20260831004519 | 70 | 67 | 2.6 | 4.3 | 0.00 | 0.00 | 0.00 | 47 | 1026.8 |
| 20260831003520 | 71 | 57 | 4.3 | 6.1 | 0.00 | 0.00 | 0.00 | 44 | 1026.8 |
| 20260831002520 | 71 | 11 | 4.3 | 7.0 | 0.00 | 0.00 | 0.00 | 42 | 1026.8 |
| 20260831001540 | 72 | 24 | 4.3 | 7.0 | 0.00 | 0.00 | 0.00 | 41 | 1026.9 |
| 20260831000541 | 72 | 345 | 7.0 | 8.7 | 0.00 | 0.00 | 0.00 | 40 | 1026.7 |
| 20260830235517 | 72 | 11 | 7.0 | 10.4 | 0.00 | 0.00 | 0.00 | 40 | 1026.7 |
| 20260830234520 | 73 | 318 | 5.2 | 7.8 | 0.00 | 0.00 | 0.00 | 41 | 1026.8 |
| 20260830233521 | 73 | 240 | 5.2 | 7.8 | 0.00 | 0.00 | 0.00 | 32 | 1026.7 |
| 20260830232518 | 74 | 225 | 6.1 | 8.7 | 0.00 | 0.00 | 0.00 | 31 | 1026.5 |
| 20260830231521 | 74 | 239 | 6.1 | 8.7 | 0.00 | 0.00 | 0.00 | 31 | 1026.5 |
| 20260830230559 | 74 | 243 | 6.1 | 8.7 | 0.00 | 0.00 | 0.00 | 34 | 1026.6 |
| 20260830225541 | 74 | 270 | 4.3 | 6.1 | 0.00 | 0.00 | 0.00 | 32 | 1026.6 |
| 20260830224521 | 74 | 269 | 5.2 | 8.7 | 0.00 | 0.00 | 0.00 | 31 | 1026.6 |
| 20260830223522 | 75 | 266 | 3.5 | 7.8 | 0.00 | 0.00 | 0.00 | 30 | 1026.7 |
| 20260830222519 | 75 | 224 | 5.2 | 11.3 | 0.00 | 0.00 | 0.00 | 32 | 1026.6 |
| 20260830221516 | 75 | 250 | 5.2 | 10.4 | 0.00 | 0.00 | 0.00 | 32 | 1026.6 |
| 20260830220536 | 75 | 250 | 3.5 | 8.7 | 0.00 | 0.00 | 0.00 | 30 | 1026.7 |
| 20260830215517 | 75 | 286 | 5.2 | 10.4 | 0.00 | 0.00 | 0.00 | 30 | 1026.7 |
| 20260830214516 | 75 | 270 | 4.3 | 8.7 | 0.00 | 0.00 | 0.00 | 30 | 1026.7 |
| 20260830213517 | 76 | 290 | 6.1 | 9.6 | 0.00 | 0.00 | 0.00 | 31 | 1026.8 |
| 20260830212518 | 74 | 262 | 7.0 | 12.2 | 0.00 | 0.00 | 0.00 | 33 | 1026.8 |
| 20260830211517 | 74 | 237 | 5.2 | 11.3 | 0.00 | 0.01 | 0.00 | 33 | 1026.7 |
| 20260830210517 | 74 | 230 | 7.0 | 11.3 | 0.00 | 0.01 | 0.00 | 34 | 1026.8 |
| 20260830205518 | 74 | 240 | 7.8 | 15.6 | 0.00 | 0.01 | 0.00 | 34 | 1026.7 |
| 20260830204518 | 73 | 241 | 8.7 | 17.4 | 0.00 | 0.01 | 0.00 | 34 | 1026.7 |
| 20260830203518 | 73 | 239 | 7.8 | 13.0 | 0.00 | 0.01 | 0.00 | 35 | 1026.8 |
| 20260830202518 | 73 | 255 | 7.0 | 11.3 | 0.00 | 0.01 | 0.00 | 35 | 1026.9 |
| 20260830201518 | 73 | 270 | 7.8 | 13.9 | 0.00 | 0.01 | 0.00 | 35 | 1026.9 |
| 20260830200518 | 73 | 259 | 6.1 | 10.4 | 0.00 | 0.01 | 0.00 | 34 | 1027.0 |
| 20260830195519 | 73 | 286 | 3.5 | 7.0 | 0.00 | 0.01 | 0.00 | 37 | 1027.1 |
| 20260830194519 | 73 | 286 | 5.2 | 7.8 | 0.00 | 0.01 | 0.00 | 37 | 1027.2 |